Location: Zlin
(49.2330°N, 17.6670°E)
Time: 12:53:08
(UTC+02:00)

ISS - Visible Passes

Search period start: 23 May 2017 00:00
Search period end: 02 June 2017 00:00
Orbit: 402 x 409 km, 51.6° (Epoch: 23 May)

Date Brightness Start Highest point End Pass type
(mag) Time Alt. Az. Time Alt. Az. Time Alt. Az.
23 May -3.1 01:15:13 12° W 01:18:08 55° N 01:21:23 10° ENE visible
23 May -3.6 02:51:34 10° WNW 02:54:52 73° NNE 02:58:08 10° E visible
23 May -3.5 22:46:27 10° SW 22:49:35 43° SSE 22:52:44 10° ENE visible
24 May -3.4 00:22:46 10° W 00:26:02 63° NNW 00:29:19 10° ENE visible
24 May -3.3 01:59:31 10° WNW 02:02:47 60° N 02:06:01 10° E visible
24 May -3.6 03:36:05 10° WNW 03:39:16 48° SSW 03:42:26 10° SE visible
24 May -2.9 21:54:49 10° SSW 21:57:40 27° SE 22:00:32 10° E visible
24 May -3.8 23:30:39 10° WSW 23:33:57 79° NNW 23:37:15 10° ENE visible
25 May -3.1 01:07:25 10° WNW 01:10:40 54° N 01:13:54 10° E visible
25 May -4.0 02:43:59 10° WNW 02:47:17 74° SSW 02:50:33 10° ESE visible
25 May -4.0 22:38:36 10° WSW 22:41:54 76° SSE 22:45:12 10° ENE visible
26 May -3.1 00:15:17 10° W 00:18:32 54° N 00:21:46 10° ENE visible
26 May -3.8 01:51:55 10° WNW 01:55:13 81° NNE 01:58:30 10° ESE visible
26 May -2.8 03:28:41 10° W 03:31:29 26° SW 03:34:17 10° SSE visible
26 May -3.7 21:46:40 10° SW 21:49:53 51° SSE 21:53:06 10° ENE visible
26 May -3.2 23:23:06 10° W 23:26:23 59° N 23:29:39 10° ENE visible
27 May -3.4 00:59:50 10° WNW 01:03:07 64° NNE 01:06:23 10° E visible
27 May -3.5 02:36:26 10° WNW 02:39:33 41° SSW 02:42:39 10° SE visible
27 May -3.6 22:30:57 10° W 22:34:15 72° NNW 22:37:32 10° ENE visible
28 May -3.1 00:07:43 10° WNW 00:10:58 56° N 00:14:13 10° E visible
28 May -3.9 01:44:16 10° WNW 01:47:20 61° SW 01:47:20 61° SW visible
28 May -3.8 21:38:50 10° WSW 21:42:08 86° SSE 21:45:27 10° ENE visible
28 May -3.0 23:15:33 10° W 23:18:48 53° N 23:22:02 10° ENE visible
29 May -3.9 00:52:10 10° WNW 00:55:28 90° NNE 00:55:54 65° ESE visible
29 May -3.1 22:23:21 10° W 22:26:37 56° N 22:29:52 10° ENE visible
30 May -3.6 00:00:02 10° WNW 00:03:20 69° NNE 00:04:58 27° E visible
30 May -1.7 01:36:41 10° W 01:37:34 16° W 01:37:34 16° W visible
30 May -3.4 21:31:08 10° W 21:34:26 66° NNW 21:37:43 10° ENE visible
30 May -3.2 23:07:54 10° WNW 23:11:10 58° N 23:14:14 11° E visible
31 May -3.1 00:44:27 10° WNW 00:46:51 40° WSW 00:46:51 40° WSW visible
31 May -3.0 22:15:42 10° WNW 22:18:57 53° N 22:22:12 10° E visible
31 May -4.0 23:52:17 10° WNW 23:55:36 80° SSW 23:56:12 55° SE visible
01 Jun -3.0 21:23:28 10° W 21:26:44 55° N 21:29:58 10° ENE visible
01 Jun -3.7 23:00:08 10° WNW 23:03:26 76° NNE 23:05:37 19° E visible
